| time (UTC) | temp F | wind direction | speed MPH | gust MPH | rain 1hr in | rain 24hr in | rain mn in | humidity % | barometer mb |
| 20260506015342 | 30 | 26 | 0.0 | 0.0 | 0.00 | 0.00 | 0.00 | 94 | 1001.5 |
| 20260506014833 | 30 | 26 | 0.0 | 0.0 | 0.00 | 0.00 | 0.00 | 94 | 1001.5 |
| 20260506014325 | 30 | 26 | 0.0 | 0.0 | 0.00 | 0.00 | 0.00 | 94 | 1001.4 |
| 20260506013816 | 30 | 26 | 0.0 | 0.0 | 0.00 | 0.00 | 0.00 | 94 | 1001.3 |
| 20260506013330 | 30 | 26 | 0.0 | 0.0 | 0.00 | 0.00 | 0.00 | 93 | 1001.3 |
| 20260506012825 | 30 | 26 | 0.0 | 0.0 | 0.00 | 0.00 | 0.00 | 93 | 1001.3 |
| 20260506012338 | 30 | 26 | 0.0 | 0.0 | 0.00 | 0.00 | 0.00 | 93 | 1001.2 |
| 20260506011850 | 30 | 26 | 0.0 | 0.0 | 0.00 | 0.00 | 0.00 | 93 | 1001.2 |
| 20260506011320 | 30 | 26 | 0.0 | 0.0 | 0.00 | 0.00 | 0.00 | 93 | 1001.2 |
| 20260506010852 | 29 | 26 | 0.0 | 0.0 | 0.00 | 0.00 | 0.00 | 93 | 1001.2 |
| 20260506010323 | 29 | 26 | 0.0 | 0.0 | 0.00 | 0.00 | 0.00 | 93 | 1001.1 |
| 20260506005814 | 29 | 26 | 0.0 | 0.0 | 0.00 | 0.00 | 0.00 | 92 | 1001.1 |
| 20260506005349 | 29 | 26 | 0.0 | 0.0 | 0.00 | 0.00 | 0.00 | 92 | 1001.1 |
| 20260506004818 | 29 | 26 | 0.0 | 2.0 | 0.00 | 0.00 | 0.00 | 92 | 1001.0 |
| 20260506004331 | 29 | 26 | 0.0 | 2.0 | 0.00 | 0.00 | 0.00 | 92 | 1001.1 |
| 20260506003835 | 29 | 26 | 0.0 | 3.0 | 0.00 | 0.00 | 0.00 | 92 | 1001.0 |
| 20260506003331 | 29 | 26 | 0.0 | 3.0 | 0.00 | 0.00 | 0.00 | 92 | 1001.0 |
| 20260506002823 | 29 | 22 | 0.0 | 2.0 | 0.00 | 0.00 | 0.00 | 92 | 1001.0 |
| 20260506002333 | 29 | 22 | 0.0 | 2.0 | 0.00 | 0.00 | 0.00 | 92 | 1001.0 |
| 20260506001848 | 30 | 22 | 0.0 | 0.0 | 0.00 | 0.00 | 0.00 | 92 | 1001.0 |
| 20260506001317 | 30 | 22 | 0.0 | 0.0 | 0.00 | 0.00 | 0.00 | 92 | 1001.0 |
| 20260506000850 | 30 | 22 | 0.0 | 0.0 | 0.00 | 0.00 | 0.00 | 91 | 1001.0 |
| 20260506000323 | 30 | 22 | 0.0 | 0.0 | 0.00 | 0.00 | 0.00 | 91 | 1001.0 |
| 20260505235833 | 30 | 22 | 0.0 | 0.0 | 0.00 | 0.00 | 0.00 | 91 | 1001.0 |
| 20260505235325 | 30 | 22 | 0.0 | 6.0 | 0.00 | 0.00 | 0.00 | 90 | 1001.0 |
| 20260505234819 | 30 | 22 | 1.0 | 6.0 | 0.00 | 0.00 | 0.00 | 89 | 1001.0 |
| 20260505234353 | 30 | 2 | 0.0 | 2.0 | 0.00 | 0.00 | 0.00 | 88 | 1001.0 |
| 20260505233822 | 30 | 358 | 0.0 | 0.0 | 0.00 | 0.00 | 0.00 | 88 | 1001.0 |
| 20260505233315 | 30 | 358 | 0.0 | 0.0 | 0.00 | 0.00 | 0.00 | 88 | 1000.9 |
| 20260505232829 | 30 | 358 | 0.0 | 0.0 | 0.00 | 0.00 | 0.00 | 88 | 1001.0 |
| 20260505232321 | 30 | 358 | 0.0 | 2.0 | 0.00 | 0.00 | 0.00 | 88 | 1000.9 |
| 20260505231831 | 30 | 358 | 0.0 | 2.0 | 0.00 | 0.00 | 0.00 | 87 | 1001.0 |
| 20260505231324 | 30 | 358 | 1.0 | 3.0 | 0.00 | 0.00 | 0.00 | 87 | 1001.0 |
| 20260505230815 | 30 | 352 | 1.0 | 3.0 | 0.00 | 0.00 | 0.00 | 87 | 1001.0 |
| 20260505230349 | 30 | 349 | 0.0 | 3.0 | 0.00 | 0.00 | 0.00 | 87 | 1001.0 |
| 20260505225821 | 30 | 350 | 0.0 | 3.0 | 0.00 | 0.00 | 0.00 | 86 | 1001.0 |
| 20260505225333 | 30 | 350 | 0.0 | 2.0 | 0.00 | 0.00 | 0.00 | 87 | 1001.0 |
| 20260505224844 | 30 | 350 | 0.0 | 0.0 | 0.00 | 0.00 | 0.00 | 87 | 1001.1 |
| 20260505224334 | 30 | 350 | 0.0 | 0.0 | 0.00 | 0.00 | 0.00 | 86 | 1001.1 |
| 20260505223846 | 30 | 348 | 0.0 | 0.0 | 0.00 | 0.00 | 0.00 | 86 | 1001.1 |
| 20260505223337 | 30 | 349 | 0.0 | 0.0 | 0.00 | 0.00 | 0.00 | 87 | 1001.1 |
| 20260505222829 | 30 | 349 | 0.0 | 0.0 | 0.00 | 0.00 | 0.00 | 86 | 1001.0 |
| 20260505222322 | 30 | 348 | 0.0 | 1.0 | 0.00 | 0.00 | 0.00 | 86 | 1001.0 |
| 20260505221835 | 30 | 349 | 0.0 | 1.0 | 0.00 | 0.00 | 0.00 | 86 | 1001.0 |
| 20260505221325 | 30 | 348 | 0.0 | 0.0 | 0.00 | 0.00 | 0.00 | 87 | 1001.0 |
| 20260505220839 | 30 | 348 | 0.0 | 0.0 | 0.00 | 0.00 | 0.00 | 87 | 1001.0 |
| 20260505220351 | 30 | 348 | 0.0 | 0.0 | 0.00 | 0.00 | 0.00 | 86 | 1001.0 |
| 20260505215841 | 30 | 349 | 0.0 | 2.0 | 0.00 | 0.00 | 0.00 | 86 | 1001.0 |
| 20260505215330 | 30 | 348 | 0.0 | 3.0 | 0.00 | 0.00 | 0.00 | 86 | 1001.0 |
| 20260505214823 | 30 | 348 | 1.0 | 3.0 | 0.00 | 0.00 | 0.00 | 86 | 1001.2 |
| 20260505214316 | 30 | 348 | 0.0 | 3.0 | 0.00 | 0.00 | 0.00 | 85 | 1001.1 |
| 20260505213847 | 30 | 348 | 1.0 | 3.0 | 0.00 | 0.00 | 0.00 | 85 | 1001.1 |
| 20260505213338 | 30 | 349 | 0.0 | 0.0 | 0.00 | 0.00 | 0.00 | 85 | 1001.1 |
| 20260505212829 | 30 | 349 | 0.0 | 1.0 | 0.00 | 0.00 | 0.00 | 85 | 1001.1 |
| 20260505212322 | 30 | 349 | 0.0 | 1.0 | 0.00 | 0.00 | 0.00 | 85 | 1001.1 |
| 20260505211833 | 30 | 349 | 0.0 | 2.0 | 0.00 | 0.00 | 0.00 | 85 | 1001.2 |
| 20260505211345 | 30 | 349 | 1.0 | 2.0 | 0.00 | 0.00 | 0.00 | 85 | 1001.1 |
| 20260505210818 | 30 | 349 | 0.0 | 1.0 | 0.00 | 0.00 | 0.00 | 85 | 1001.2 |
| 20260505210331 | 30 | 349 | 0.0 | 1.0 | 0.00 | 0.00 | 0.00 | 85 | 1001.2 |
| 20260505205822 | 30 | 349 | 0.0 | 1.0 | 0.00 | 0.00 | 0.00 | 85 | 1001.2 |
| 20260505205315 | 30 | 349 | 0.0 | 2.0 | 0.00 | 0.00 | 0.00 | 85 | 1001.2 |
| 20260505204827 | 30 | 349 | 1.0 | 2.0 | 0.00 | 0.00 | 0.00 | 85 | 1001.1 |
| 20260505204338 | 30 | 348 | 1.0 | 2.0 | 0.00 | 0.00 | 0.00 | 84 | 1001.1 |
| 20260505203828 | 30 | 346 | 0.0 | 1.0 | 0.00 | 0.00 | 0.00 | 84 | 1001.1 |
| 20260505203341 | 31 | 346 | 0.0 | 1.0 | 0.00 | 0.00 | 0.00 | 84 | 1001.1 |
| 20260505202854 | 31 | 346 | 0.0 | 2.0 | 0.00 | 0.00 | 0.00 | 84 | 1001.1 |
| 20260505202325 | 31 | 346 | 0.0 | 3.0 | 0.00 | 0.00 | 0.00 | 83 | 1001.2 |
| 20260505201819 | 31 | 346 | 2.0 | 4.0 | 0.00 | 0.00 | 0.00 | 83 | 1001.2 |
| 20260505201333 | 31 | 347 | 2.0 | 4.0 | 0.00 | 0.00 | 0.00 | 83 | 1001.2 |
| 20260505200835 | 31 | 357 | 0.0 | 2.0 | 0.00 | 0.00 | 0.00 | 83 | 1001.3 |
| 20260505200349 | 31 | 358 | 0.0 | 5.0 | 0.00 | 0.00 | 0.00 | 82 | 1001.2 |
| 20260505195839 | 31 | 4 | 2.0 | 5.0 | 0.00 | 0.00 | 0.00 | 82 | 1001.2 |
| 20260505195331 | 31 | 10 | 0.0 | 3.0 | 0.00 | 0.00 | 0.00 | 81 | 1001.2 |
| 20260505194818 | 32 | 1 | 1.0 | 3.0 | 0.00 | 0.00 | 0.00 | 82 | 1001.1 |
| 20260505194332 | 32 | 4 | 0.0 | 4.0 | 0.00 | 0.00 | 0.00 | 82 | 1001.2 |
| 20260505193823 | 32 | 4 | 2.0 | 4.0 | 0.00 | 0.00 | 0.00 | 82 | 1001.2 |
| 20260505193319 | 32 | 6 | 2.0 | 3.0 | 0.00 | 0.00 | 0.00 | 82 | 1001.2 |
| 20260505192832 | 32 | 8 | 1.0 | 3.0 | 0.00 | 0.00 | 0.00 | 82 | 1001.3 |
| 20260505192323 | 32 | 8 | 0.0 | 4.0 | 0.00 | 0.00 | 0.00 | 82 | 1001.2 |
| 20260505191817 | 32 | 6 | 0.0 | 4.0 | 0.00 | 0.00 | 0.00 | 81 | 1001.2 |
| 20260505191328 | 32 | 6 | 3.0 | 4.0 | 0.00 | 0.00 | 0.00 | 81 | 1001.2 |
| 20260505190839 | 32 | 2 | 2.0 | 8.0 | 0.00 | 0.00 | 0.00 | 80 | 1001.1 |
| 20260505190332 | 32 | 1 | 2.0 | 8.0 | 0.00 | 0.00 | 0.00 | 79 | 1001.2 |
| 20260505185823 | 33 | 339 | 1.0 | 6.0 | 0.00 | 0.00 | 0.00 | 78 | 1001.2 |
| 20260505185334 | 33 | 336 | 2.0 | 6.0 | 0.00 | 0.00 | 0.00 | 77 | 1001.2 |
| 20260505184848 | 33 | 31 | 1.0 | 3.0 | 0.00 | 0.00 | 0.00 | 77 | 1001.2 |
| 20260505184324 | 33 | 33 | 1.0 | 4.0 | 0.00 | 0.00 | 0.00 | 76 | 1001.1 |
| 20260505183815 | 33 | 33 | 2.0 | 4.0 | 0.00 | 0.00 | 0.00 | 76 | 1001.0 |
| 20260505183328 | 33 | 335 | 0.0 | 5.0 | 0.00 | 0.00 | 0.00 | 75 | 1001.1 |
| 20260505182840 | 33 | 333 | 3.0 | 5.0 | 0.00 | 0.00 | 0.00 | 75 | 1001.2 |
| 20260505182331 | 34 | 332 | 1.0 | 5.0 | 0.00 | 0.00 | 0.00 | 74 | 1001.2 |
| 20260505181820 | 34 | 341 | 1.0 | 5.0 | 0.00 | 0.00 | 0.00 | 73 | 1001.1 |
| 20260505181331 | 34 | 351 | 2.0 | 6.0 | 0.00 | 0.00 | 0.00 | 73 | 1001.1 |
| 20260505180825 | 34 | 348 | 3.0 | 8.0 | 0.00 | 0.00 | 0.00 | 71 | 1001.1 |
| 20260505180321 | 34 | 10 | 4.0 | 8.0 | 0.00 | 0.00 | 0.00 | 71 | 1001.1 |
| 20260505175832 | 35 | 318 | 4.0 | 8.0 | 0.00 | 0.00 | 0.00 | 71 | 1001.1 |
| 20260505175325 | 35 | 328 | 4.0 | 9.0 | 0.00 | 0.00 | 0.00 | 71 | 1001.1 |
| 20260505174857 | 35 | 332 | 3.0 | 9.0 | 0.00 | 0.00 | 0.00 | 70 | 1001.1 |
| 20260505174327 | 35 | 332 | 4.0 | 9.0 | 0.00 | 0.00 | 0.00 | 69 | 1001.2 |
| 20260505173819 | 35 | 58 | 1.0 | 6.0 | 0.00 | 0.00 | 0.00 | 67 | 1001.1 |
| 20260505173331 | 36 | 337 | 4.0 | 7.0 | 0.00 | 0.00 | 0.00 | 66 | 1001.0 |
| 20260505172820 | 36 | 341 | 5.0 | 9.0 | 0.00 | 0.00 | 0.00 | 66 | 1001.0 |
| 20260505172352 | 36 | 302 | 3.0 | 10.0 | 0.00 | 0.00 | 0.00 | 65 | 1001.0 |
| 20260505171823 | 37 | 309 | 5.0 | 10.0 | 0.00 | 0.00 | 0.00 | 65 | 1001.0 |
| 20260505171320 | 37 | 304 | 3.0 | 11.0 | 0.00 | 0.00 | 0.00 | 64 | 1000.9 |
| 20260505170852 | 37 | 327 | 3.0 | 11.0 | 0.00 | 0.00 | 0.00 | 64 | 1000.9 |
| 20260505170347 | 37 | 344 | 5.0 | 11.0 | 0.00 | 0.00 | 0.00 | 64 | 1001.0 |
| 20260505165814 | 38 | 342 | 7.0 | 11.0 | 0.00 | 0.00 | 0.00 | 63 | 1000.9 |
| 20260505165326 | 38 | 311 | 2.0 | 11.0 | 0.00 | 0.00 | 0.00 | 63 | 1000.9 |
| 20260505164817 | 38 | 322 | 4.0 | 11.0 | 0.00 | 0.00 | 0.00 | 62 | 1000.7 |
| 20260505164330 | 38 | 345 | 5.0 | 10.0 | 0.00 | 0.00 | 0.00 | 61 | 1000.8 |
| 20260505163819 | 38 | 357 | 4.0 | 11.0 | 0.00 | 0.00 | 0.00 | 61 | 1000.8 |
| 20260505163330 | 38 | 332 | 5.0 | 11.0 | 0.00 | 0.00 | 0.00 | 61 | 1000.8 |
| 20260505162827 | 38 | 330 | 5.0 | 11.0 | 0.00 | 0.00 | 0.00 | 61 | 1000.8 |
| 20260505162318 | 38 | 249 | 5.0 | 11.0 | 0.00 | 0.00 | 0.00 | 59 | 1000.8 |
| 20260505161852 | 38 | 281 | 5.0 | 11.0 | 0.00 | 0.00 | 0.00 | 59 | 1000.8 |
| 20260505161323 | 39 | 323 | 6.0 | 13.0 | 0.00 | 0.00 | 0.00 | 60 | 1000.8 |
| 20260505160815 | 39 | 307 | 7.0 | 15.0 | 0.00 | 0.00 | 0.00 | 59 | 1000.7 |
| 20260505160330 | 39 | 271 | 7.0 | 15.0 | 0.00 | 0.00 | 0.00 | 59 | 1000.8 |
| 20260505153321 | 37 | 332 | 5.0 | 10.0 | 0.00 | 0.00 | 0.00 | 67 | 1000.8 |
| 20260505152834 | 37 | 332 | 5.0 | 12.0 | 0.00 | 0.00 | 0.00 | 69 | 1000.9 |
| 20260505152327 | 36 | 291 | 3.0 | 13.0 | 0.00 | 0.00 | 0.00 | 67 | 1000.9 |
| 20260505151837 | 36 | 327 | 6.0 | 13.0 | 0.00 | 0.00 | 0.00 | 69 | 1000.9 |
| 20260505151330 | 36 | 323 | 7.0 | 12.0 | 0.00 | 0.00 | 0.00 | 69 | 1000.9 |
| 20260505150821 | 37 | 301 | 5.0 | 14.0 | 0.00 | 0.00 | 0.00 | 68 | 1000.9 |
| 20260505150331 | 37 | 308 | 7.0 | 14.0 | 0.00 | 0.00 | 0.00 | 68 | 1000.9 |
| 20260505140316 | 42 | 14 | 10.0 | 15.0 | 0.00 | 0.00 | 0.00 | 54 | 1000.4 |
| 20260505124815 | 42 | 312 | 4.0 | 10.0 | 0.00 | 0.00 | 0.00 | 62 | 1000.0 |
| 20260505124328 | 42 | 336 | 4.0 | 11.0 | 0.00 | 0.00 | 0.00 | 64 | 1000.1 |
| 20260505123822 | 42 | 330 | 6.0 | 12.0 | 0.00 | 0.00 | 0.00 | 65 | 1000.2 |
| 20260505123316 | 41 | 347 | 3.0 | 10.0 | 0.00 | 0.00 | 0.00 | 68 | 1000.1 |
| 20260505122829 | 40 | 329 | 4.0 | 12.0 | 0.00 | 0.00 | 0.00 | 72 | 1000.1 |
| 20260505122320 | 39 | 299 | 8.0 | 12.0 | 0.00 | 0.00 | 0.00 | 74 | 1000.1 |
| 20260505121832 | 38 | 301 | 5.0 | 14.0 | 0.00 | 0.00 | 0.00 | 72 | 999.9 |
| 20260505121325 | 38 | 326 | 9.0 | 14.0 | 0.00 | 0.00 | 0.00 | 78 | 1000.1 |
| 20260505120817 | 38 | 330 | 6.0 | 14.0 | 0.00 | 0.00 | 0.00 | 77 | 1000.1 |
| 20260505120351 | 38 | 327 | 7.0 | 17.0 | 0.00 | 0.00 | 0.00 | 82 | 1000.1 |
| 20260505115816 | 38 | 327 | 10.0 | 21.0 | 0.00 | 0.00 | 0.00 | 75 | 1000.1 |
| 20260505115330 | 39 | 328 | 9.0 | 16.0 | 0.00 | 0.00 | 0.00 | 61 | 1000.0 |
| 20260505114818 | 40 | 329 | 6.0 | 15.0 | 0.00 | 0.00 | 0.00 | 58 | 999.8 |
| 20260505114332 | 40 | 335 | 6.0 | 15.0 | 0.00 | 0.00 | 0.00 | 59 | 999.7 |
| 20260505113820 | 40 | 347 | 5.0 | 13.0 | 0.00 | 0.00 | 0.00 | 60 | 999.7 |
| 20260505113354 | 41 | 331 | 6.0 | 13.0 | 0.00 | 0.00 | 0.00 | 59 | 999.7 |
| 20260505112826 | 41 | 311 | 8.0 | 12.0 | 0.00 | 0.00 | 0.00 | 59 | 999.7 |
| 20260505112319 | 40 | 315 | 6.0 | 15.0 | 0.00 | 0.00 | 0.00 | 66 | 999.6 |
| 20260505111832 | 39 | 335 | 10.0 | 16.0 | 0.00 | 0.00 | 0.00 | 66 | 999.6 |
| 20260505111327 | 39 | 309 | 6.0 | 16.0 | 0.00 | 0.00 | 0.00 | 65 | 999.6 |
| 20260505110840 | 38 | 351 | 8.0 | 13.0 | 0.00 | 0.00 | 0.00 | 68 | 999.6 |
| 20260505110333 | 37 | 335 | 6.0 | 12.0 | 0.00 | 0.00 | 0.00 | 68 | 999.5 |
| 20260505101822 | 38 | 339 | 5.0 | 13.0 | 0.00 | 0.00 | 0.00 | 60 | 999.3 |
| 20260505101354 | 38 | 16 | 6.0 | 13.0 | 0.00 | 0.00 | 0.00 | 60 | 999.2 |
| 20260505100822 | 38 | 355 | 8.0 | 13.0 | 0.00 | 0.00 | 0.00 | 63 | 999.2 |
| 20260505100315 | 37 | 314 | 6.0 | 13.0 | 0.00 | 0.00 | 0.00 | 63 | 999.1 |
| 20260505095825 | 37 | 341 | 8.0 | 13.0 | 0.00 | 0.00 | 0.00 | 62 | 999.1 |
| 20260505095317 | 37 | 324 | 7.0 | 12.0 | 0.00 | 0.00 | 0.00 | 62 | 999.1 |
| 20260505094830 | 37 | 335 | 5.0 | 16.0 | 0.00 | 0.00 | 0.00 | 64 | 999.1 |
| 20260505094321 | 38 | 330 | 6.0 | 14.0 | 0.00 | 0.00 | 0.00 | 63 | 999.1 |
| 20260505093854 | 38 | 346 | 5.0 | 14.0 | 0.00 | 0.00 | 0.00 | 63 | 999.0 |
| 20260505093345 | 39 | 281 | 6.0 | 14.0 | 0.00 | 0.00 | 0.00 | 62 | 998.9 |
| 20260505092820 | 40 | 296 | 3.0 | 13.0 | 0.00 | 0.00 | 0.00 | 62 | 998.9 |
| 20260505092332 | 40 | 286 | 5.0 | 12.0 | 0.00 | 0.00 | 0.00 | 61 | 998.9 |
| 20260505091822 | 40 | 316 | 6.0 | 12.0 | 0.00 | 0.00 | 0.00 | 65 | 998.8 |
| 20260505091333 | 39 | 310 | 4.0 | 13.0 | 0.00 | 0.00 | 0.00 | 67 | 998.6 |
| 20260505090818 | 39 | 341 | 9.0 | 13.0 | 0.00 | 0.00 | 0.00 | 69 | 998.6 |
| 20260505090351 | 38 | 326 | 4.0 | 10.0 | 0.00 | 0.00 | 0.00 | 74 | 998.8 |
| 20260505085820 | 37 | 330 | 6.0 | 10.0 | 0.00 | 0.00 | 0.00 | 79 | 998.9 |
| 20260505085332 | 35 | 332 | 3.0 | 10.0 | 0.00 | 0.00 | 0.00 | 83 | 998.9 |
| 20260505084824 | 33 | 343 | 4.0 | 13.0 | 0.00 | 0.00 | 0.00 | 82 | 999.0 |
| 20260505084319 | 33 | 357 | 7.0 | 13.0 | 0.00 | 0.00 | 0.00 | 81 | 998.9 |
| 20260505083831 | 33 | 301 | 5.0 | 14.0 | 0.00 | 0.00 | 0.00 | 80 | 998.8 |
| 20260505083344 | 33 | 286 | 6.0 | 15.0 | 0.00 | 0.00 | 0.00 | 79 | 998.7 |
| 20260505082817 | 33 | 300 | 6.0 | 14.0 | 0.00 | 0.00 | 0.00 | 75 | 998.6 |
| 20260505082327 | 33 | 317 | 6.0 | 14.0 | 0.00 | 0.00 | 0.00 | 73 | 998.6 |
| 20260505081817 | 33 | 322 | 7.0 | 14.0 | 0.00 | 0.00 | 0.00 | 73 | 998.5 |
| 20260505081328 | 33 | 297 | 6.0 | 14.0 | 0.00 | 0.00 | 0.00 | 73 | 998.5 |
| 20260505080820 | 33 | 318 | 6.0 | 12.0 | 0.00 | 0.00 | 0.00 | 73 | 998.3 |
| 20260505080315 | 32 | 322 | 6.0 | 16.0 | 0.00 | 0.00 | 0.00 | 73 | 998.3 |
| 20260505075828 | 32 | 337 | 6.0 | 11.0 | 0.00 | 0.00 | 0.00 | 74 | 998.4 |
| 20260505075320 | 32 | 314 | 5.0 | 11.0 | 0.00 | 0.00 | 0.00 | 76 | 998.3 |
| 20260505074832 | 32 | 318 | 6.0 | 11.0 | 0.00 | 0.00 | 0.00 | 77 | 998.3 |
| 20260505074324 | 31 | 298 | 4.0 | 10.0 | 0.00 | 0.00 | 0.00 | 77 | 998.2 |
| 20260505073816 | 31 | 341 | 5.0 | 10.0 | 0.00 | 0.00 | 0.00 | 77 | 998.2 |
| 20260505073330 | 31 | 346 | 4.0 | 10.0 | 0.00 | 0.00 | 0.00 | 76 | 998.2 |
| 20260505072822 | 31 | 11 | 3.0 | 11.0 | 0.00 | 0.00 | 0.00 | 76 | 998.2 |
| 20260505072317 | 31 | 24 | 6.0 | 12.0 | 0.00 | 0.00 | 0.00 | 75 | 998.2 |
| 20260505071831 | 31 | 13 | 7.0 | 16.0 | 0.00 | 0.00 | 0.00 | 76 | 998.1 |
| 20260505071323 | 31 | 328 | 6.0 | 13.0 | 0.00 | 0.00 | 0.00 | 76 | 998.1 |
| 20260505070834 | 31 | 345 | 7.0 | 13.0 | 0.00 | 0.00 | 0.00 | 76 | 998.0 |
| 20260505070326 | 31 | 323 | 4.0 | 10.0 | 0.00 | 0.00 | 0.00 | 77 | 998.0 |
| 20260505065817 | 31 | 349 | 6.0 | 13.0 | 0.00 | 0.00 | 0.00 | 76 | 998.0 |
| 20260505065328 | 31 | 325 | 6.0 | 13.0 | 0.00 | 0.00 | 0.00 | 76 | 998.0 |
| 20260505064817 | 31 | 341 | 4.0 | 9.0 | 0.00 | 0.00 | 0.00 | 76 | 998.0 |
| 20260505064329 | 31 | 332 | 3.0 | 8.0 | 0.00 | 0.00 | 0.00 | 75 | 997.9 |
| 20260505063825 | 31 | 7 | 3.0 | 10.0 | 0.00 | 0.00 | 0.00 | 75 | 998.0 |
| 20260505063318 | 31 | 335 | 5.0 | 11.0 | 0.00 | 0.00 | 0.00 | 75 | 998.0 |
| 20260505062831 | 31 | 21 | 5.0 | 11.0 | 0.00 | 0.00 | 0.00 | 76 | 998.0 |
| 20260505062342 | 30 | 341 | 4.0 | 7.0 | 0.00 | 0.00 | 0.00 | 76 | 998.0 |
| 20260505061835 | 30 | 341 | 4.0 | 9.0 | 0.00 | 0.00 | 0.00 | 77 | 998.1 |
| 20260505061326 | 30 | 4 | 1.0 | 6.0 | 0.00 | 0.00 | 0.00 | 76 | 998.0 |
| 20260505060835 | 30 | 349 | 3.0 | 10.0 | 0.00 | 0.00 | 0.00 | 76 | 998.0 |
| 20260505060327 | 30 | 357 | 4.0 | 10.0 | 0.00 | 0.00 | 0.00 | 75 | 998.0 |
| 20260505055835 | 30 | 334 | 3.0 | 14.0 | 0.00 | 0.00 | 0.00 | 75 | 998.0 |
| 20260505055332 | 30 | 347 | 4.0 | 14.0 | 0.00 | 0.00 | 0.00 | 75 | 998.0 |
| 20260505054823 | 30 | 333 | 5.0 | 10.0 | 0.00 | 0.00 | 0.00 | 75 | 997.8 |
| 20260505054316 | 30 | 334 | 5.0 | 10.0 | 0.00 | 0.00 | 0.00 | 75 | 997.8 |
| 20260505053826 | 31 | 332 | 5.0 | 9.0 | 0.00 | 0.00 | 0.00 | 75 | 997.8 |
| 20260505053319 | 31 | 300 | 4.0 | 9.0 | 0.00 | 0.00 | 0.00 | 75 | 997.8 |
| 20260505052832 | 31 | 328 | 5.0 | 11.0 | 0.00 | 0.00 | 0.00 | 74 | 997.8 |
| 20260505052322 | 31 | 328 | 5.0 | 12.0 | 0.00 | 0.00 | 0.00 | 74 | 997.8 |
| 20260505051833 | 32 | 328 | 5.0 | 12.0 | 0.00 | 0.00 | 0.00 | 74 | 997.7 |
| 20260505051329 | 32 | 334 | 6.0 | 13.0 | 0.00 | 0.00 | 0.00 | 75 | 997.7 |
| 20260505050823 | 31 | 327 | 7.0 | 13.0 | 0.00 | 0.00 | 0.00 | 77 | 997.7 |
| 20260505050314 | 31 | 341 | 7.0 | 11.0 | 0.00 | 0.00 | 0.00 | 77 | 997.7 |
| 20260505041313 | 29 | 330 | 4.0 | 9.0 | 0.00 | 0.00 | 0.00 | 77 | 997.3 |
| 20260505040827 | 28 | 337 | 4.0 | 11.0 | 0.00 | 0.00 | 0.00 | 77 | 997.3 |
| 20260505040320 | 28 | 342 | 5.0 | 11.0 | 0.00 | 0.00 | 0.00 | 77 | 997.2 |
| 20260505035832 | 28 | 351 | 4.0 | 8.0 | 0.00 | 0.00 | 0.00 | 78 | 997.2 |
| 20260505035323 | 28 | 329 | 4.0 | 9.0 | 0.00 | 0.00 | 0.00 | 77 | 997.3 |
| 20260505034818 | 28 | 345 | 3.0 | 10.0 | 0.00 | 0.00 | 0.00 | 77 | 997.2 |
| 20260505034330 | 28 | 339 | 5.0 | 10.0 | 0.00 | 0.00 | 0.00 | 77 | 997.2 |
| 20260505033820 | 28 | 340 | 4.0 | 6.0 | 0.00 | 0.00 | 0.00 | 77 | 997.2 |
| 20260505033333 | 28 | 351 | 4.0 | 10.0 | 0.00 | 0.00 | 0.00 | 76 | 997.1 |
| 20260505032817 | 28 | 345 | 5.0 | 11.0 | 0.00 | 0.00 | 0.00 | 75 | 997.1 |
| 20260505032329 | 28 | 321 | 6.0 | 11.0 | 0.00 | 0.00 | 0.00 | 75 | 997.1 |
| 20260505031819 | 28 | 358 | 3.0 | 9.0 | 0.00 | 0.00 | 0.00 | 76 | 997.0 |
| 20260505031331 | 28 | 346 | 6.0 | 9.0 | 0.00 | 0.00 | 0.00 | 76 | 997.1 |
| 20260505030823 | 28 | 3 | 2.0 | 8.0 | 0.00 | 0.00 | 0.00 | 77 | 997.1 |
| 20260505030320 | 28 | 353 | 3.0 | 11.0 | 0.00 | 0.00 | 0.00 | 77 | 997.1 |
| 20260505025831 | 28 | 50 | 4.0 | 11.0 | 0.00 | 0.00 | 0.00 | 77 | 997.1 |
| 20260505025320 | 28 | 7 | 2.0 | 8.0 | 0.00 | 0.00 | 0.00 | 77 | 997.1 |
| 20260505024833 | 28 | 60 | 3.0 | 9.0 | 0.00 | 0.00 | 0.00 | 78 | 997.1 |
| 20260505024324 | 29 | 10 | 4.0 | 9.0 | 0.00 | 0.00 | 0.00 | 79 | 997.1 |
| 20260505023817 | 29 | 6 | 1.0 | 6.0 | 0.00 | 0.00 | 0.00 | 80 | 997.1 |
| 20260505023328 | 29 | 4 | 2.0 | 6.0 | 0.00 | 0.00 | 0.00 | 80 | 997.1 |
| 20260505022821 | 29 | 39 | 3.0 | 6.0 | 0.00 | 0.00 | 0.00 | 80 | 997.1 |
| 20260505022317 | 29 | 8 | 2.0 | 6.0 | 0.00 | 0.00 | 0.00 | 80 | 997.0 |
| 20260505021823 | 29 | 349 | 2.0 | 6.0 | 0.00 | 0.00 | 0.00 | 80 | 997.1 |
| 20260505021336 | 29 | 344 | 3.0 | 6.0 | 0.00 | 0.00 | 0.00 | 79 | 997.0 |
| 20260505020827 | 29 | 349 | 2.0 | 7.0 | 0.00 | 0.00 | 0.00 | 78 | 996.9 |
| 20260505020320 | 29 | 360 | 2.0 | 8.0 | 0.00 | 0.00 | 0.00 | 79 | 996.9 |
| 20260505015827 | 29 | 353 | 2.0 | 10.0 | 0.00 | 0.00 | 0.00 | 78 | 996.9 |